Time_in_sec,gx,gy,gz
1312472028.84330845,0.00257642,0.03450340,-0.99940126
1312472028.89532399,0.00258348,0.03465884,-0.99939586
1312472028.94445753,0.00255064,0.03466761,-0.99939564
1312472028.99530697,0.00254193,0.03437140,-0.99940590
1312472029.04740596,0.00248844,0.03460917,-0.99939783
1312472029.09242392,0.00247713,0.03492395,-0.99938690
1312472029.14330459,0.00256038,0.03486544,-0.99938874
1312472029.19244647,0.00250846,0.03469850,-0.99939468
1312472029.24331951,0.00261449,0.03465259,-0.99939600
1312472029.29545236,0.00259323,0.03466979,-0.99939546
1312472029.33635926,0.00297614,0.03446158,-0.99940159
1312472029.39639401,0.00297884,0.03443102,-0.99940264
1312472029.43530154,0.00307260,0.03421065,-0.99940992
1312472029.48435163,0.00313760,0.03412326,-0.99941271
1312472029.53638697,0.00311130,0.03419121,-0.99941047
1312472029.59633350,0.00306736,0.03443572,-0.99940221
1312472029.63677144,0.00317861,0.03461604,-0.99939563
1312472029.68834376,0.00290257,0.03447494,-0.99940135
1312472029.73627615,0.00310411,0.03438902,-0.99940370
1312472029.78730011,0.00318330,0.03441404,-0.99940259
1312472029.83529925,0.00426388,0.03405929,-0.99941072
1312472029.88833833,0.00447294,0.03416536,-0.99940618
1312472029.93710041,0.00446742,0.03400849,-0.99941156
1312472029.98432755,0.00436300,0.03391535,-0.99941519
1312472030.03523088,0.00453046,0.03387525,-0.99941580
1312472030.08732724,0.00404034,0.03387202,-0.99941801
1312472030.13548112,0.00371565,0.03377777,-0.99942246
1312472030.18843460,0.00363517,0.03391514,-0.99941811
1312472030.23644161,0.00359943,0.03400407,-0.99941521
1312472030.28432751,0.00342330,0.03388568,-0.99941985
1312472030.33631110,0.00336029,0.03413635,-0.99941154
1312472030.38429117,0.00341709,0.03411701,-0.99941200
1312472030.43675470,0.00341226,0.03405898,-0.99941400
1312472030.48844934,0.00350438,0.03417085,-0.99940986
1312472030.53635168,0.00342352,0.03398802,-0.99941638
1312472030.58845377,0.00335293,0.03363863,-0.99942844
1312472030.63648534,0.00353453,0.03338744,-0.99943623
1312472030.68833661,0.00320226,0.03349320,-0.99943382
1312472030.73637199,0.00316316,0.03354584,-0.99943217
1312472030.78835988,0.00330241,0.03332694,-0.99943905
1312472030.83730364,0.00329229,0.03308469,-0.99944713
1312472030.88846421,0.00322276,0.03318125,-0.99944415
1312472030.93650579,0.00333889,0.03310870,-0.99944618
1312472030.98846292,0.00349332,0.03336247,-0.99943721
1312472031.03643084,0.00372618,0.03336145,-0.99943641
1312472031.08443069,0.00386636,0.03327779,-0.99943866
1312472031.13557148,0.00396080,0.03321081,-0.99944052
1312472031.18843102,0.00408381,0.03349720,-0.99943047
1312472031.23539138,0.00417286,0.03349176,-0.99943028
1312472031.28443480,0.00412899,0.03336588,-0.99943468
1312472031.33668852,0.00370779,0.03340085,-0.99943516
1312472031.38844895,0.00401572,0.03322168,-0.99943994
1312472031.43529415,0.00406907,0.03342489,-0.99943295
1312472031.48832989,0.00420879,0.03338436,-0.99943372
1312472031.53620458,0.00405561,0.03337305,-0.99943474
1312472031.58740258,0.00466686,0.03370476,-0.99942094
1312472031.63529372,0.00462820,0.03374643,-0.99941971
1312472031.68731046,0.00457354,0.03369094,-0.99942183
1312472031.73619795,0.00457112,0.03370014,-0.99942154
1312472031.78733897,0.00466457,0.03370992,-0.99942077
1312472031.83533168,0.00459371,0.03445824,-0.99939558
1312472031.88842106,0.00458015,0.03446751,-0.99939532
1312472031.93628383,0.00486070,0.03454092,-0.99939146
1312472031.98734546,0.00489611,0.03454831,-0.99939104
1312472032.03568077,0.00481456,0.03461989,-0.99938895
1312472032.08439040,0.00569386,0.03495392,-0.99937270
1312472032.13537359,0.00571249,0.03475619,-0.99937949
1312472032.18447518,0.00564368,0.03487386,-0.99937579
1312472032.23637104,0.00585589,0.03481633,-0.99937657
1312472032.28735900,0.00579503,0.03484500,-0.99937593
1312472032.33656907,0.00619279,0.03443113,-0.99938789
1312472032.38440132,0.00630931,0.03425333,-0.99939327
1312472032.43691182,0.00660196,0.03415267,-0.99939482
1312472032.48841500,0.00676539,0.03409928,-0.99939555
1312472032.53649116,0.00703109,0.03390706,-0.99940026
1312472032.58832741,0.00780284,0.03401579,-0.99939084
1312472032.63666630,0.00773078,0.03381565,-0.99939819
1312472032.68449235,0.00762793,0.03381143,-0.99939912
1312472032.73641300,0.00741141,0.03380247,-0.99940105
1312472032.78441763,0.00742683,0.03399681,-0.99939435
1312472032.83550858,0.00732737,0.03446144,-0.99937917
1312472032.88437414,0.00738550,0.03471707,-0.99936989
1312472032.93671012,0.00721515,0.03485394,-0.99936637
1312472032.98741984,0.00719559,0.03499376,-0.99936163
1312472033.03673697,0.00737847,0.03518235,-0.99935367
1312472033.08443022,0.00660210,0.03626745,-0.99932031
1312472033.13542867,0.00669350,0.03630329,-0.99931840
1312472033.18436623,0.00668086,0.03618190,-0.99932289
1312472033.23620868,0.00667303,0.03609313,-0.99932615
1312472033.28799629,0.00686649,0.03613380,-0.99932337
1312472033.33635902,0.00677902,0.03636424,-0.99931561
1312472033.38844705,0.00680155,0.03665029,-0.99930501
1312472033.43652201,0.00677898,0.03651569,-0.99931009
1312472033.48844910,0.00692800,0.03659972,-0.99930599
1312472033.53541827,0.00690441,0.03649560,-0.99930996
1312472033.58435345,0.00613182,0.03696743,-0.99929766
1312472033.63643050,0.00598766,0.03675622,-0.99930632
1312472033.68842721,0.00581727,0.03656456,-0.99931436
1312472033.73575640,0.00562362,0.03664912,-0.99931237
1312472033.78735852,0.00560049,0.03662153,-0.99931351
1312472033.83630013,0.00614382,0.03718744,-0.99928942
1312472033.88458347,0.00598433,0.03754658,-0.99927696
1312472033.93676734,0.00583450,0.03719151,-0.99929112
1312472033.98443842,0.00593141,0.03716868,-0.99929140
1312472034.03652883,0.00593031,0.03694511,-0.99929970
1312472034.08745241,0.00599875,0.03717283,-0.99929085
1312472034.13544655,0.00578648,0.03707022,-0.99929591
1312472034.18741441,0.00619086,0.03696150,-0.99929751
1312472034.23629022,0.00608680,0.03700756,-0.99929645
1312472034.28843307,0.00619721,0.03718950,-0.99928902
1312472034.33678150,0.00690788,0.03690928,-0.99929474
1312472034.38844657,0.00689630,0.03690122,-0.99929512
1312472034.43826318,0.00684656,0.03674488,-0.99930123
1312472034.48740935,0.00696885,0.03678525,-0.99929889
1312472034.53555059,0.00693005,0.03650476,-0.99930945
1312472034.58843398,0.00763691,0.03575916,-0.99933126
1312472034.63641810,0.00751626,0.03585304,-0.99932881
1312472034.68429089,0.00780543,0.03569826,-0.99933213
1312472034.73640513,0.00777797,0.03578583,-0.99932921
1312472034.78433800,0.00780364,0.03579307,-0.99932875
1312472034.83532572,0.00800453,0.03562686,-0.99933310
1312472034.88430810,0.00807983,0.03560187,-0.99933339
1312472034.93644762,0.00822491,0.03589073,-0.99932187
1312472034.98844552,0.00824306,0.03565623,-0.99933012
1312472035.03535509,0.00823003,0.03580057,-0.99932507
1312472035.08742499,0.00772768,0.03559375,-0.99933646
1312472035.13929296,0.00762186,0.03550217,-0.99934053
1312472035.18343139,0.00783585,0.03552977,-0.99933790
1312472035.23558807,0.00791183,0.03529574,-0.99934559
1312472035.28439975,0.00786979,0.03513313,-0.99935165
1312472035.33629942,0.00848364,0.03574847,-0.99932481
1312472035.38437557,0.00839406,0.03539816,-0.99933804
1312472035.43628407,0.00838212,0.03552707,-0.99933356
1312472035.48442864,0.00830200,0.03567554,-0.99932894
1312472035.53628492,0.00830309,0.03554320,-0.99933365
1312472035.58440518,0.00843728,0.03609749,-0.99931266
1312472035.63535404,0.00850107,0.03585854,-0.99932072
1312472035.68431354,0.00860371,0.03578562,-0.99932245
1312472035.73606801,0.00849868,0.03563530,-0.99932872
1312472035.78839397,0.00860539,0.03576246,-0.99932327
1312472035.83631516,0.00872089,0.03603236,-0.99931257
1312472035.88835740,0.00851369,0.03594283,-0.99931758
1312472035.93634224,0.00860546,0.03595027,-0.99931653
1312472035.98443079,0.00856350,0.03595300,-0.99931679
1312472036.03652143,0.00856055,0.03595846,-0.99931662
1312472036.08730483,0.00774104,0.03632535,-0.99931003
1312472036.13543916,0.00786546,0.03612397,-0.99931636
1312472036.18743253,0.00784719,0.03611346,-0.99931689
1312472036.23631501,0.00779386,0.03617935,-0.99931492
1312472036.28430820,0.00767290,0.03630597,-0.99931126
1312472036.33628631,0.00820207,0.03622531,-0.99930999
1312472036.39642620,0.00839917,0.03635990,-0.99930346
1312472036.43642664,0.00838691,0.03665563,-0.99929276
1312472036.48442078,0.00828539,0.03664454,-0.99929402
1312472036.53631830,0.00825264,0.03662563,-0.99929498
1312472036.58430529,0.00838063,0.03666464,-0.99929248
1312472036.63643098,0.00849281,0.03697960,-0.99927993
1312472036.68740678,0.00842232,0.03689475,-0.99928366
1312472036.73644352,0.00824494,0.03692294,-0.99928410
1312472036.78843617,0.00788218,0.03702429,-0.99928328
1312472036.83667374,0.00757097,0.03709125,-0.99928320
1312472036.88444614,0.00740594,0.03691496,-0.99929097
1312472036.94329047,0.00754331,0.03690529,-0.99929030
1312472036.98435593,0.00747656,0.03687194,-0.99929203
1312472037.03541040,0.00749313,0.03692625,-0.99928990
1312472037.08844352,0.00728648,0.03770962,-0.99926217
1312472037.13533831,0.00737534,0.03795483,-0.99925224
1312472037.18843317,0.00766675,0.03793077,-0.99925096
1312472037.23671889,0.00781613,0.03806958,-0.99924452
1312472037.28843188,0.00752399,0.03808217,-0.99924628
1312472037.33642173,0.00757242,0.03773218,-0.99925920
1312472037.38844442,0.00752929,0.03810944,-0.99924521
1312472037.43673682,0.00763370,0.03800840,-0.99924826
1312472037.48432994,0.00783338,0.03815583,-0.99924110
1312472037.53674698,0.00777751,0.03827599,-0.99923694
1312472037.58443379,0.00779818,0.03838314,-0.99923267
1312472037.63645291,0.00780531,0.03844042,-0.99923041
1312472037.68844247,0.00770908,0.03835171,-0.99923457
1312472037.73641276,0.00776940,0.03860074,-0.99922451
1312472037.78843546,0.00788114,0.03854746,-0.99922569
1312472037.83647847,0.00791850,0.03904793,-0.99920596
1312472037.88749480,0.00818414,0.03890439,-0.99920942
1312472037.93651724,0.00837480,0.03875573,-0.99921362
1312472037.98434258,0.00814427,0.03914115,-0.99920050
1312472038.03608465,0.00826145,0.03868086,-0.99921746
1312472038.08440423,0.00807375,0.03895686,-0.99920828
1312472038.13532925,0.00793605,0.03904848,-0.99920580
1312472038.18387055,0.00788763,0.03889878,-0.99921202
1312472038.23533130,0.00802293,0.03898973,-0.99920740
1312472038.29532933,0.00798955,0.03884248,-0.99921341
1312472038.33631635,0.00819064,0.03834359,-0.99923105
1312472038.39233541,0.00834648,0.03830498,-0.99923124
1312472038.43567252,0.00843700,0.03839863,-0.99922688
1312472038.49243021,0.00834738,0.03862264,-0.99921900
1312472038.53641534,0.00826311,0.03839105,-0.99922863
1312472038.58534169,0.00855953,0.03852444,-0.99922100
1312472038.63641596,0.00848289,0.03849863,-0.99922265
1312472038.69560695,0.00860891,0.03842778,-0.99922430
1312472038.73652577,0.00862295,0.03825732,-0.99923072
1312472038.78433752,0.00862377,0.03806549,-0.99923803
1312472038.83527637,0.00866946,0.03845812,-0.99922260
1312472038.89242268,0.00847507,0.03857575,-0.99921974
1312472038.94737434,0.00818508,0.03858519,-0.99922179
1312472038.98437262,0.00813980,0.03874721,-0.99921589
1312472039.04372168,0.00830825,0.03842781,-0.99922684
1312472039.09533358,0.00794826,0.03853425,-0.99922567
1312472039.13631010,0.00795070,0.03846519,-0.99922831
1312472039.18439174,0.00785953,0.03862569,-0.99922284
1312472039.23651791,0.00808270,0.03852304,-0.99922502
1312472039.29635477,0.00814675,0.03850881,-0.99922505
1312472039.33640957,0.00864044,0.03884964,-0.99920771
1312472039.38779354,0.00872212,0.03876051,-0.99921046
1312472039.43640089,0.00858769,0.03892639,-0.99920518
1312472039.48447442,0.00855229,0.03897087,-0.99920375
1312472039.54339194,0.00876629,0.03939071,-0.99918543
1312472039.59644032,0.00859152,0.03970977,-0.99917432
1312472039.63531947,0.00867737,0.03956518,-0.99917931
1312472039.69642687,0.00885551,0.03963749,-0.99917488
1312472039.73630095,0.00899814,0.03966775,-0.99917241
1312472039.78735018,0.00890385,0.03978008,-0.99916879
1312472039.83631992,0.00922085,0.04032698,-0.99914399
1312472039.88842654,0.00901397,0.04015254,-0.99915290
1312472039.93643093,0.00913383,0.04040358,-0.99914169
1312472039.98741293,0.00922954,0.04030671,-0.99914473
1312472040.03539968,0.00934708,0.04066526,-0.99912910
1312472040.08844757,0.00930269,0.04038174,-0.99914102
1312472040.14336228,0.00921515,0.04042302,-0.99914016
1312472040.18444324,0.00933821,0.04034085,-0.99914234
1312472040.23632574,0.00911452,0.04012853,-0.99915295
1312472040.28843451,0.00918266,0.03986364,-0.99916293
1312472040.33636546,0.00919690,0.03988774,-0.99916184
1312472040.39643121,0.00930031,0.03999283,-0.99915668
1312472040.43646169,0.00915513,0.03990226,-0.99916165
1312472040.49542761,0.00908632,0.03968134,-0.99917107
1312472040.54334664,0.00914443,0.03971877,-0.99916905
1312472040.58436418,0.01008281,0.03900376,-0.99918819
1312472040.64443660,0.00987974,0.03909837,-0.99918652
1312472040.69541574,0.00985487,0.03932908,-0.99917771
1312472040.73644447,0.00995683,0.03920221,-0.99918169
1312472040.79263759,0.01001216,0.03911469,-0.99918457
1312472040.84334278,0.00991087,0.03942698,-0.99917330
1312472040.89265084,0.00941951,0.03948277,-0.99917585
1312472040.93642759,0.00952165,0.03961692,-0.99916957
1312472040.98445106,0.00971229,0.03961976,-0.99916763
1312472041.04341793,0.00982288,0.03962146,-0.99916648
1312472041.09246230,0.01015656,0.03950806,-0.99916763
1312472041.13641405,0.00998841,0.03952433,-0.99916868
1312472041.19246221,0.00982451,0.03964543,-0.99916551
1312472041.24328923,0.01008109,0.03958801,-0.99916523
1312472041.29246736,0.01031770,0.03993617,-0.99914896
1312472041.33630490,0.01011617,0.03990602,-0.99915223
1312472041.38367701,0.01013086,0.03986283,-0.99915380
1312472041.44336057,0.01005543,0.03985719,-0.99915479
1312472041.49235225,0.00967634,0.03990943,-0.99915645
1312472041.54344463,0.00994974,0.04022732,-0.99914101
1312472041.59241962,0.00973536,0.03946932,-0.99917336
1312472041.64330840,0.00978906,0.03956883,-0.99916890
1312472041.69242501,0.00979281,0.03940855,-0.99917519
1312472041.73641038,0.01018928,0.03924165,-0.99917780
1312472041.78433561,0.01009678,0.03950745,-0.99916826
1312472041.84511280,0.01026273,0.03934381,-0.99917303
1312472041.89232755,0.01053339,0.03907540,-0.99918074
1312472041.94333649,0.01053570,0.03914671,-0.99917793
1312472041.99633551,0.01049090,0.03896452,-0.99918552
1312472042.03836465,0.01044395,0.03885764,-0.99919018
1312472042.09631896,0.01089972,0.03857583,-0.99919623
1312472042.14333916,0.01093472,0.03864064,-0.99919334
1312472042.19633603,0.01072810,0.03859911,-0.99919719
1312472042.24434304,0.01040719,0.03859155,-0.99920087
1312472042.29637933,0.01027545,0.03868206,-0.99919874
1312472042.34447503,0.01079635,0.03806489,-0.99921694
1312472042.39565372,0.01086628,0.03793984,-0.99922094
1312472042.44432354,0.01083992,0.03776593,-0.99922782
1312472042.49580216,0.01071201,0.03776089,-0.99922939
1312472042.54443717,0.01059137,0.03761673,-0.99923611
1312472042.59541106,0.01074162,0.03713453,-0.99925254
1312472042.64444780,0.01085980,0.03713374,-0.99925129
1312472042.69533467,0.01074808,0.03692530,-0.99926023
1312472042.74443793,0.01068410,0.03710428,-0.99925428
1312472042.79540300,0.01066262,0.03708367,-0.99925528
1312472042.84444165,0.01013208,0.03754522,-0.99924356
1312472042.89541245,0.01028302,0.03761616,-0.99923935
1312472042.94433737,0.01019542,0.03749852,-0.99924467
1312472042.99541450,0.01049222,0.03762048,-0.99923702
1312472043.04344821,0.01059334,0.03752848,-0.99923941
1312472043.09637046,0.01052340,0.03735589,-0.99924661
1312472043.14448833,0.01039321,0.03749003,-0.99924295
1312472043.19532561,0.01021541,0.03756451,-0.99924199
1312472043.24443722,0.01023705,0.03762350,-0.99923955
1312472043.29535174,0.01039952,0.03793675,-0.99922603
1312472043.34437799,0.01057917,0.03824747,-0.99921230
1312472043.39529181,0.01068712,0.03804797,-0.99921876
1312472043.44332099,0.01077299,0.03823804,-0.99921059
1312472043.49638057,0.01081457,0.03826959,-0.99920893
1312472043.54332209,0.01073011,0.03824520,-0.99921077
1312472043.59534907,0.01147940,0.03753378,-0.99922942
1312472043.64330077,0.01160637,0.03760154,-0.99922541
1312472043.69642615,0.01127828,0.03765796,-0.99922704
1312472043.74330306,0.01123529,0.03771733,-0.99922529
1312472043.79631925,0.01133513,0.03767942,-0.99922559
1312472043.84334278,0.01126931,0.03737192,-0.99923788
1312472043.89636350,0.01140138,0.03756692,-0.99922907
1312472043.94328165,0.01132115,0.03730476,-0.99923980
1312472043.99540949,0.01143854,0.03705673,-0.99924770
1312472044.04330564,0.01129315,0.03709788,-0.99924782
1312472044.09544563,0.01070392,0.03703376,-0.99925669
1312472044.14548302,0.01066193,0.03701001,-0.99925802
1312472044.19541430,0.01074657,0.03714246,-0.99925219
1312472044.24442887,0.01099709,0.03717056,-0.99924842
1312472044.29242396,0.01105259,0.03738943,-0.99923965
1312472044.34336710,0.01072886,0.03760555,-0.99923506
1312472044.39533639,0.01078331,0.03792365,-0.99922246
1312472044.44330287,0.01076563,0.03778052,-0.99922807
1312472044.49242544,0.01078787,0.03789892,-0.99922335
1312472044.54344106,0.01085534,0.03787764,-0.99922342
1312472044.59542990,0.01075775,0.03770374,-0.99923105
1312472044.64329648,0.01085202,0.03776126,-0.99922786
1312472044.69241834,0.01090670,0.03790744,-0.99922173
1312472044.74349403,0.01092700,0.03782382,-0.99922468
1312472044.79535127,0.01102467,0.03814734,-0.99921131
1312472044.84431887,0.01160074,0.03802254,-0.99920954
1312472044.89528680,0.01153818,0.03818776,-0.99920397
1312472044.94436955,0.01116522,0.03807072,-0.99921267
1312472044.99535465,0.01100240,0.03805698,-0.99921500
1312472045.04438877,0.01096536,0.03791150,-0.99922094
1312472045.09633279,0.01199601,0.03742867,-0.99922730
1312472045.14432430,0.01216922,0.03738662,-0.99922678
1312472045.19533539,0.01218613,0.03716983,-0.99923466
1312472045.24435782,0.01206666,0.03721956,-0.99923426
1312472045.29534626,0.01205090,0.03721510,-0.99923461
1312472045.34444785,0.01203899,0.03693317,-0.99924522
1312472045.39541769,0.01192650,0.03706008,-0.99924187
1312472045.44443512,0.01193598,0.03684609,-0.99924967
1312472045.49648881,0.01214771,0.03699078,-0.99924177
1312472045.54329062,0.01230964,0.03691388,-0.99924263
1312472045.59644365,0.01264859,0.03669891,-0.99924632
1312472045.64374900,0.01271686,0.03674961,-0.99924359
1312472045.69642663,0.01252228,0.03663707,-0.99925018
1312472045.74339390,0.01250218,0.03668217,-0.99924877
1312472045.79529095,0.01249227,0.03647069,-0.99925664
1312472045.84442329,0.01275602,0.03618890,-0.99926355
1312472045.89541984,0.01274177,0.03629457,-0.99925990
1312472045.94442940,0.01251430,0.03614740,-0.99926811
1312472045.99642158,0.01263963,0.03603187,-0.99927071
1312472046.04352283,0.01265950,0.03605532,-0.99926961
1312472046.09533644,0.01340419,0.03572604,-0.99927172
1312472046.14357090,0.01379082,0.03558800,-0.99927139
1312472046.19534755,0.01399140,0.03540823,-0.99927499
1312472046.24393272,0.01365446,0.03562511,-0.99927194
1312472046.29540181,0.01380574,0.03569968,-0.99926720
1312472046.34444880,0.01376530,0.03563176,-0.99927018
1312472046.39643145,0.01365117,0.03576198,-0.99926709
1312472046.44328833,0.01357170,0.03572407,-0.99926953
1312472046.49643588,0.01377573,0.03559585,-0.99927132
1312472046.54332447,0.01384639,0.03553917,-0.99927236
1312472046.59642553,0.01433335,0.03487265,-0.99928897
1312472046.64431787,0.01436802,0.03476074,-0.99929238
1312472046.69636965,0.01451108,0.03480042,-0.99928893
1312472046.74431753,0.01438666,0.03494286,-0.99928576
1312472046.79542947,0.01452157,0.03492284,-0.99928450
1312472046.84434557,0.01500327,0.03449620,-0.99929221
1312472046.89541411,0.01478798,0.03476320,-0.99928616
1312472046.94329572,0.01479773,0.03477387,-0.99928565
1312472046.99645853,0.01484848,0.03489421,-0.99928070
1312472047.04443932,0.01482027,0.03483709,-0.99928311
1312472047.09543800,0.01493959,0.03435582,-0.99929800
1312472047.14444947,0.01470596,0.03436377,-0.99930119
1312472047.19544172,0.01476168,0.03423451,-0.99930480
1312472047.24333310,0.01476377,0.03430269,-0.99930243
1312472047.29532719,0.01491709,0.03411096,-0.99930672
1312472047.34329081,0.01484701,0.03393766,-0.99931367
1312472047.39533162,0.01485437,0.03392462,-0.99931400
1312472047.44343925,0.01474005,0.03413760,-0.99930844
1312472047.49530673,0.01482271,0.03403422,-0.99931074
1312472047.54428220,0.01488043,0.03417068,-0.99930523
1312472047.59529400,0.01457459,0.03401023,-0.99931521
